Regional Weather Roundup
Issued by NWS Midland/Odessa, TX

Skip options and go directly to product.
Home | Oldest Version | Previous Version | Current Version | All | Text Only | Save Text | Print | Product List | Glossary Off

Skip product version selection by date and time.   

625
ASUS44 KMAF 220010
RWRMAF
MIDLAND AREA WEATHER ROUNDUP
NATIONAL WEATHER SERVICE MIDLAND TX
600 PM CST SUN DEC 21 2014

...IN SOUTHWEST TEXAS AND SOUTHEAST NEW MEXICO...

CITY           SKY/WX    TMP DP  RH WIND       PRES   REMARKS
ALPINE         PTCLDY    58  23  26 W20G28    29.94F
ANDREWS        FAIR      61  26  25 W10       29.74R
ARTESIA        MOCLDY    59  27  29 W23G32    29.76F
BIG SPRING     PTCLDY    61  28  28 SW8       29.75R
CARLSBAD       PTCLDY    61  25  25 W22G31    29.74S
DRYDEN           N/A     59  46  62 SE13      29.80F
FORT STOCKTON  PTCLDY    62  24  23 SW13      29.80S
GUAD PASS      NOT AVBL
HOBBS          CLEAR     59  27  29 SW17      29.76R
MARFA          PTCLDY    55  21  26 W22       29.93F
MIDLAND AIRPK  PTCLDY    65  26  22 SW13      29.75R
MIDLAND INTL   PTCLDY    64  26  23 SW15      29.74R
ODESSA         PTCLDY    63  24  22 W17       29.75S
PECOS          PTCLDY    65  24  21 W17G28    29.77F
PRESIDIO       FAIR      67  27  22 SE6       29.89F
SEMINOLE       MOCLDY    59  28  30 W9        29.73F
SNYDER         PTCLDY    62  29  29 SW12G17   29.70S
WINK           CLOUDY    65  23  20 W17G25    29.72F
$$
...OTHER STATIONS IN TEXAS...

CITY           SKY/WX    TMP DP  RH WIND       PRES   REMARKS
ABILENE        CLEAR     57  41  55 S13       29.72F
AMARILLO       CLOUDY    50  26  39 S7        29.62S
AUSTIN         CLOUDY    56  51  84 S10       29.88F
BROWNSVILLE    CLOUDY    64  61  90 N5        29.92F
CORPUS CHRISTI MOCLDY    60  55  83 SE6       29.92F
DALLAS FTW     CLOUDY    51  45  79 S16       29.82F
DEL RIO        CLEAR     54  48  80 E5        29.87S
EL PASO        MOCLDY    62  25  24 W8        29.90F
HOUSTON INT    CLOUDY    58  50  75 SE5       29.94F
LUBBOCK        CLOUDY    61  26  26 W21G32    29.63F
SAN ANGELO     CLEAR     58  43  57 S15       29.75F
SAN ANTONIO    CLOUDY    55  50  83 SW12      29.90F
WACO           CLOUDY    53  47  79 S14       29.86S
WICHITA FALLS  NOT AVBL
$$
...OTHER LOCATIONS IN NEW MEXICO...

CITY           SKY/WX    TMP DP  RH WIND       PRES   REMARKS
ALAMAGORDO     MOCLDY    54  27  35 NE5       29.90F
ALBUQUERQUE    PTCLDY    48  29  47 NE9       29.94R
CANNON AFB     CLOUDY    56  26  31 W18       29.66S
CLOVIS         CLOUDY    55  27  33 W24G32    29.64S
HOLLOMAN AFB   MOCLDY    53  31  44 E5        29.89F
ROSWELL        CLOUDY    62  25  24 W13       29.74F
RUIDOSO        MOCLDY    45  23  42 N7        29.91R
SANTA FE       CLEAR     40  25  55 NE6       29.89S WCI  36
TRUTH OR CONSE PTCLDY    56  27  32 CALM      29.90S
TUCUMCARI      CLOUDY    56  23  27 W21       29.59F
$$

USA.gov is the U.S. government's official web portal to all federal, state and local government web resources and services.